Navelencia
DateTemperatureDew Point
09/04 - 08:45 PM72.7°58.1°
09/04 - 08:30 PM73.5°58.6°
09/04 - 08:15 PM74.4°58.7°
09/04 - 08:00 PM75.2°58.1°
09/04 - 07:45 PM75.1°57.7°
09/04 - 07:30 PM75.2°57.0°
09/04 - 07:15 PM76.6°57.4°
09/04 - 07:00 PM78.0°58.0°
09/04 - 06:45 PM79.1°58.7°
09/04 - 06:30 PM80.2°60.0°
09/04 - 06:15 PM81.2°60.0°
09/04 - 06:00 PM82.2°60.0°
09/04 - 05:45 PM83.2°60.2°
09/04 - 05:30 PM84.0°61.1°
09/04 - 05:15 PM84.0°61.1°
09/04 - 05:00 PM84.0°61.7°
09/04 - 04:45 PM84.3°62.2°
09/04 - 04:30 PM84.9°62.1°
09/04 - 04:15 PM84.7°62.9°
09/04 - 04:00 PM85.0°62.8°
09/04 - 03:45 PM84.8°62.7°
09/04 - 03:30 PM84.7°62.8°
09/04 - 03:15 PM84.0°63.1°
09/04 - 03:00 PM84.0°63.2°
09/04 - 02:45 PM83.9°63.6°
09/04 - 02:30 PM83.9°63.1°
09/04 - 02:15 PM83.8°63.0°
09/04 - 02:00 PM83.1°63.3°
09/04 - 01:45 PM82.9°63.3°
09/04 - 01:30 PM82.8°63.9°
09/04 - 01:15 PM81.9°63.3°
09/04 - 01:00 PM82.0°63.2°
09/04 - 12:45 PM81.0°63.7°
09/04 - 12:30 PM80.4°64.4°
09/04 - 12:15 PM80.2°64.2°
09/04 - 12:00 PM79.4°64.0°
09/04 - 11:45 AM78.6°63.1°
09/04 - 11:30 AM77.4°63.3°
09/04 - 11:15 AM76.5°63.5°
09/04 - 11:00 AM76.0°63.0°
09/04 - 10:45 AM74.8°63.1°
09/04 - 10:30 AM74.2°63.1°
09/04 - 10:15 AM73.4°62.5°
09/04 - 10:00 AM73.0°62.6°
09/04 - 09:45 AM71.8°62.3°
09/04 - 09:30 AM70.6°62.2°
09/04 - 09:15 AM69.5°62.0°
09/04 - 09:00 AM68.4°62.0°
09/04 - 08:45 AM67.4°61.7°
09/04 - 08:30 AM66.2°61.4°
09/04 - 08:15 AM63.9°62.0°
09/04 - 08:00 AM61.2°60.5°
09/04 - 07:45 AM59.2°58.9°
09/04 - 07:30 AM57.4°58.2°
09/04 - 07:15 AM55.9°57.4°
09/04 - 07:00 AM54.8°57.0°
09/04 - 06:45 AM54.3°56.8°
09/04 - 06:30 AM54.2°56.9°
09/04 - 06:15 AM54.2°56.4°
09/04 - 06:00 AM54.3°55.9°
09/04 - 05:45 AM54.4°56.0°
09/04 - 05:30 AM54.5°56.4°
09/04 - 05:15 AM54.9°56.6°
09/04 - 05:00 AM55.1°57.0°
09/04 - 04:45 AM55.1°57.1°
09/04 - 04:30 AM55.1°57.0°
09/04 - 04:15 AM55.2°57.1°
09/04 - 04:00 AM55.5°57.3°
09/04 - 03:45 AM55.8°57.4°
09/04 - 03:30 AM56.0°57.4°
09/04 - 03:15 AM56.2°57.8°
09/04 - 03:00 AM56.4°58.3°
09/04 - 02:45 AM56.6°58.4°
09/04 - 02:30 AM56.9°58.4°
09/04 - 02:15 AM57.3°58.4°
09/04 - 02:00 AM57.4°58.2°
09/04 - 01:45 AM57.8°57.8°
09/04 - 01:30 AM58.1°57.5°
09/04 - 01:15 AM58.4°57.2°
09/04 - 01:00 AM58.8°57.0°
09/04 - 12:45 AM59.3°57.1°
09/04 - 12:30 AM59.2°58.2°
09/04 - 12:15 AM59.3°59.3°
09/04 - 12:00 AM59.6°59.6°
09/03 - 11:45 PM60.1°60.0°
09/03 - 11:30 PM60.5°59.9°
09/03 - 11:15 PM60.6°59.9°
09/03 - 11:00 PM60.7°60.1°
09/03 - 10:45 PM61.3°60.2°
09/03 - 10:30 PM61.8°60.0°
09/03 - 10:15 PM62.2°60.0°
09/03 - 10:00 PM62.9°60.0°
09/03 - 09:45 PM63.5°60.5°
09/03 - 09:30 PM64.1°60.6°
09/03 - 09:15 PM64.7°60.5°
09/03 - 09:00 PM65.3°60.0°
09/03 - 08:45 PM66.1°59.5°
09/03 - 08:30 PM67.1°59.2°
09/03 - 08:15 PM67.8°59.8°
09/03 - 08:00 PM68.9°59.5°
09/03 - 07:45 PM70.3°58.9°
09/03 - 07:30 PM72.2°58.1°
09/03 - 07:15 PM75.1°58.6°
09/03 - 07:00 PM77.8°57.7°
09/03 - 06:45 PM79.9°57.5°
09/03 - 06:30 PM81.6°57.6°
09/03 - 06:15 PM82.8°57.3°
09/03 - 06:00 PM83.8°57.5°
09/03 - 05:45 PM84.6°57.2°
09/03 - 05:30 PM85.0°57.8°
09/03 - 05:15 PM85.3°56.6°
09/03 - 05:00 PM85.2°57.0°
09/03 - 04:45 PM85.3°57.0°
09/03 - 04:30 PM85.5°58.2°
09/03 - 04:15 PM85.3°58.8°
09/03 - 04:00 PM85.4°57.8°
09/03 - 03:45 PM85.3°58.0°
09/03 - 03:30 PM85.2°59.0°
09/03 - 03:15 PM84.9°59.0°
09/03 - 03:00 PM84.4°58.8°
09/03 - 02:45 PM84.5°58.5°
09/03 - 02:30 PM84.1°58.6°
09/03 - 02:15 PM83.8°58.4°
09/03 - 02:00 PM83.3°58.1°
09/03 - 01:45 PM82.6°59.0°
09/03 - 01:30 PM82.4°59.4°
09/03 - 01:15 PM81.6°58.4°
09/03 - 01:00 PM81.0°58.7°
09/03 - 12:45 PM81.0°59.3°
09/03 - 12:30 PM80.0°58.6°
09/03 - 12:15 PM79.5°58.4°
09/03 - 12:00 PM79.1°58.2°
09/03 - 11:45 AM78.5°58.7°
09/03 - 11:30 AM77.5°58.8°
09/03 - 11:15 AM76.7°58.5°
09/03 - 11:00 AM76.1°58.2°
09/03 - 10:45 AM75.1°58.5°
09/03 - 10:30 AM73.8°58.9°
09/03 - 10:15 AM73.2°58.5°
09/03 - 10:00 AM72.1°58.4°
09/03 - 09:45 AM70.6°58.3°
09/03 - 09:30 AM69.5°58.2°
09/03 - 09:15 AM68.3°58.1°
09/03 - 09:00 AM67.3°57.9°
09/03 - 08:45 AM65.9°57.8°
09/03 - 08:30 AM64.1°58.2°
09/03 - 08:15 AM61.5°59.2°
09/03 - 08:00 AM58.6°58.5°
09/03 - 07:45 AM55.8°56.5°
09/03 - 07:30 AM54.0°55.0°
09/03 - 07:15 AM52.3°54.0°
09/03 - 07:00 AM51.0°52.8°
09/03 - 06:45 AM50.2°52.3°
09/03 - 06:30 AM50.1°52.5°
09/03 - 06:15 AM50.2°52.9°
09/03 - 06:00 AM50.3°53.3°
09/03 - 05:45 AM50.5°53.5°
09/03 - 05:30 AM50.7°53.8°
09/03 - 05:15 AM50.8°54.1°
09/03 - 05:00 AM50.9°54.5°
09/03 - 04:45 AM51.2°55.0°
09/03 - 04:30 AM51.4°55.1°
09/03 - 04:15 AM51.6°55.0°
09/03 - 04:00 AM51.8°55.1°
09/03 - 03:45 AM52.0°55.5°
09/03 - 03:30 AM52.2°56.1°
09/03 - 03:15 AM52.5°56.5°
09/03 - 03:00 AM52.9°56.5°
09/03 - 02:45 AM53.2°56.3°
09/03 - 02:30 AM53.6°56.5°
09/03 - 02:15 AM53.9°56.7°
09/03 - 02:00 AM54.1°56.4°
09/03 - 01:45 AM54.5°56.3°
09/03 - 01:30 AM54.7°56.4°
09/03 - 01:15 AM55.1°56.3°
09/03 - 01:00 AM55.4°56.3°
09/03 - 12:45 AM55.7°56.5°
09/03 - 12:30 AM56.1°56.9°
09/03 - 12:15 AM56.5°57.2°
09/03 - 12:00 AM56.9°57.1°
09/02 - 11:45 PM57.3°57.3°
09/02 - 11:30 PM57.6°57.4°
09/02 - 11:15 PM58.2°57.6°
09/02 - 11:00 PM58.6°57.5°
09/02 - 10:45 PM59.1°57.9°
09/02 - 10:30 PM59.8°57.8°
09/02 - 10:15 PM60.0°57.8°
09/02 - 10:00 PM60.4°57.9°
09/02 - 09:45 PM60.9°57.7°
09/02 - 09:30 PM61.7°58.0°